Back to catalog

CZ-2C Y62 STAGE 2

AliveVLEO
NORAD 51953·ROCKET BODY·🇨🇳 China
This satellite name has not been confirmed by official sources yet.

Launched Mar 5, 2022 from Xichang Satellite Launch Center

Loading…

Next Passes (next 24 hours)

TLE

FreshSource: Space-Track

Epoch: Sep 14, 2026, 15:18 UTC

1 51953U 22023H   26257.63753050  .00005123  00000-0  18592-3 0  9992
2 51953  63.6296  74.2300 0106906 307.9453  51.2040 15.24397589249882

Track CZ-2C Y62 STAGE 2 in real time with AllMySat

Download on the App Store